Wind_Speed
5 5 5 7 9 10 9 9 9 8 7 6 6 5 5 5 5 4 4 5 5 5 5 6 6 7 7 6 5 4 1 4 8 10 11 11 10 10 10 9 9 10 11
5 5 5 5 8 8 7 8 8 8 7 7 6 5 5 5 6 6 6 5 5 5 4 5 6 6 6 4 3 2 1 4 8 11 12 11 10 10 10 9 10 9 10
7 6 3 3 6 7 7 7 7 7 7 7 7 7 6 6 6 6 6 7 6 6 6 6 5 5 4 3 3 1 2 5 7 10 11 12 11 11 11 8 11 11 11
7 5 4 4 6 7 6 6 7 7 8 7 7 8 7 8 7 8 8 7 6 7 6 6 4 4 4 4 3 2 1 4 6 8 10 11 12 12 12 13 7 11 10
4 3 4 5 6 7 6 6 7 7 8 8 8 8 9 9 9 8 8 7 5 5 6 6 5 4 5 5 4 2 1 4 7 8 10 10 13 13 12 13 11 9 9
6 7 7 8 8 8 9 9 9 9 9 9 8 9 9 9 10 10 10 9 9 8 8 6 5 5 6 6 5 3 2 3 6 10 11 11 12 13 12 11 9 8 7
8 9 11 13 13 14 15 15 15 14 13 13 12 11 11 10 11 11 11 10 9 9 8 7 7 7 6 6 6 3 1 2 5 10 11 12 10 10 7 4 6 4 4
4 8 12 13 14 15 17 18 18 18 17 16 16 14 14 13 12 12 12 11 10 9 8 8 7 6 6 6 7 4 1 2 6 12 14 13 9 6 5 3 6 7 7
2 5 8 9 10 11 12 14 16 19 20 20 20 20 18 16 15 13 13 12 12 10 10 10 8 7 6 6 6 3 2 2 6 12 16 16 12 10 10 11 8 11 12
3 5 7 8 10 10 12 12 13 14 16 18 19 19 20 20 17 15 14 13 14 12 12 11 10 9 7 6 6 3 2 3 6 11 16 17 17 16 14 15 14 15 14
5 5 6 8 10 11 12 12 12 12 13 15 16 18 19 20 22 21 17 16 15 15 14 14 12 11 9 8 7 4 3 4 6 10 17 20 18 18 21 21 19 19 22
7 6 6 7 9 11 13 14 15 14 14 14 14 14 15 18 21 23 24 21 18 18 18 17 16 14 12 11 10 8 6 5 6 8 11 19 23 20 20 23 27 28 25
11 10 9 9 9 10 12 13 15 15 14 15 15 15 15 15 16 19 23 24 23 21 19 19 19 17 15 14 14 12 9 8 7 7 10 12 16 18 18 21 19 26 27
12 13 12 11 10 10 10 11 13 14 15 15 16 16 16 16 16 16 17 22 25 27 24 23 22 21 20 18 18 17 13 11 9 9 9 11 13 17 18 20 21 15 16
13 14 14 14 13 13 12 12 12 14 14 15 15 16 17 17 17 18 18 19 20 24 28 28 25 25 23 22 21 20 19 18 15 15 12 12 13 16 21 25 21 18 17
11 13 16 16 15 15 15 14 14 14 15 16 17 17 18 18 18 18 18 19 20 21 22 26 30 28 26 26 25 24 24 23 22 20 18 18 14 14 15 18 23 21 17
16 15 12 18 18 17 18 18 17 16 16 17 18 18 18 18 19 19 20 20 21 21 22 22 27 29 30 29 27 26 26 27 26 25 23 23 19 17 14 13 16 16 17
22 20 19 18 15 19 21 21 22 21 20 20 20 20 21 20 19 19 19 21 22 23 23 23 26 30 31 31 31 29 29 29 29 30 30 28 25 24 21 16 17 16 16
25 26 25 25 25 20 17 22 25 25 24 25 24 24 24 24 22 21 21 21 22 23 25 26 27 28 30 33 31 33 33 33 32 32 31 31 30 28 28 25 22 20 18
33 32 31 29 28 28 27 22 22 28 27 28 29 28 28 27 26 24 24 23 23 24 25 26 28 30 30 31 34 36 34 35 35 35 34 33 32 31 32 30 26 25 23
37 36 35 34 33 33 34 35 33 29 32 33 33 32 31 31 30 29 27 26 24 24 25 27 27 28 30 31 34 35 37 39 39 38 37 36 36 35 33 32 30 24 24
34 36 37 37 39 41 41 41 42 40 37 36 37 37 36 36 35 34 31 30 29 27 27 26 27 28 28 29 33 34 37 39 40 42 40 37 35 35 36 31 33 30 27
37 37 38 40 41 42 46 47 48 47 45 43 39 41 41 41 40 39 36 34 32 30 29 29 29 29 28 29 30 32 36 38 38 40 42 44 42 39 38 40 36 33 31
37 39 40 41 43 46 49 51 51 49 50 46 46 44 43 44 43 42 40 38 35 33 31 29 30 30 31 30 32 31 33 34 36 38 39 41 43 43 36 38 35 34 33
37 38 39 38 40 43 46 47 50 50 52 50 50 51 48 46 45 43 42 39 37 35 34 33 32 31 32 31 33 32 32 33 35 37 38 38 41 42 45 45 38 38 37
35 38 40 38 40 40 39 41 42 48 47 45 46 49 49 47 46 45 44 42 40 38 35 34 34 35 34 33 32 33 33 35 36 36 38 37 38 39 41 43 47 45 39
Wind_Direction
140 110 105 114 137 151 161 175 187 198 203 204 205 203 202 194 183 168 149 161 181 210 233 255 264 273 277 285 297 306 269 142 141 138 140 145 148 145 143 140 136 135 134
147 132 122 124 140 147 157 169 182 196 206 208 214 216 218 213 206 194 191 197 196 206 241 260 280 287 286 291 303 305 190 164 154 147 143 141 141 143 142 150 142 143 140
153 145 135 141 154 163 169 174 186 199 210 216 223 224 228 227 219 220 213 221 238 246 259 269 278 291 285 292 303 293 194 169 164 151 145 144 143 143 141 145 141 144 145
178 183 188 177 179 182 183 191 198 201 211 221 227 233 228 229 232 236 237 230 236 257 266 280 280 281 278 285 301 325 179 174 172 159 152 154 152 150 131 131 136 143 144
130 175 206 206 195 202 210 221 224 223 221 226 234 238 232 228 232 243 247 243 235 251 255 269 290 286 283 283 293 325 218 181 177 171 165 164 158 154 147 152 157 154 154
235 238 246 242 235 233 234 236 237 237 238 243 242 245 241 239 240 247 249 250 258 263 254 260 281 287 293 290 295 329 332 214 191 175 172 164 166 155 157 171 179 182 186
244 245 248 251 252 250 250 249 246 245 245 247 245 246 248 247 245 246 250 252 255 261 241 238 237 268 283 292 292 317 359 229 195 183 171 160 154 142 128 162 175 166 214
243 246 249 251 254 257 257 255 253 250 247 245 247 248 249 251 253 248 247 250 249 254 245 238 247 261 278 284 292 317 344 212 196 182 171 152 131 118 143 117 143 171 174
285 245 257 256 257 261 264 263 259 255 251 249 248 250 249 247 249 253 248 245 247 245 240 243 248 248 270 279 289 316 309 216 196 189 183 166 147 158 181 186 182 191 214
312 277 269 268 267 265 266 264 263 261 258 254 252 250 245 243 245 248 250 246 242 240 239 242 250 244 252 265 278 296 291 244 204 192 192 178 161 171 187 201 198 213 226
330 310 292 277 268 267 262 259 259 258 258 260 259 255 251 248 245 244 246 243 240 240 237 238 244 243 248 253 258 260 254 240 221 204 197 180 177 197 207 208 217 215 240
316 312 309 294 277 267 260 260 260 257 256 256 258 259 258 253 250 246 242 242 241 240 241 241 239 241 244 246 251 255 252 243 226 222 211 201 203 216 229 226 231 232 243
316 315 310 302 290 275 265 264 260 258 257 255 253 254 255 255 255 255 250 246 242 242 244 245 245 244 242 243 244 247 237 239 233 221 220 221 203 225 232 246 249 252 247
303 303 301 296 294 289 281 268 264 262 258 258 255 254 253 252 252 251 252 250 248 244 240 241 243 243 244 241 241 244 241 237 241 235 227 235 232 220 233 247 263 254 247
294 289 291 293 293 288 287 280 272 267 263 259 259 259 256 253 251 250 248 248 248 250 247 243 242 243 244 245 242 241 240 240 242 240 246 241 245 240 240 246 251 262 244
253 274 279 286 284 281 280 276 273 274 273 271 265 261 258 255 253 252 252 252 250 248 247 245 242 241 243 243 242 241 241 239 236 244 248 248 242 248 252 252 249 262 261
249 231 251 274 276 276 274 272 268 265 268 270 272 270 265 260 255 251 249 248 249 249 246 244 240 241 240 241 242 242 242 243 241 244 242 233 243 253 250 260 262 267 267
258 252 244 243 258 280 275 269 269 266 265 264 262 264 266 265 262 260 257 252 249 249 249 245 241 240 242 244 243 243 243 243 245 245 245 252 253 250 239 244 257 263 269
257 256 248 246 245 245 249 262 260 264 265 264 264 261 260 262 261 259 258 258 257 254 251 249 247 245 243 243 244 243 244 244 243 244 246 249 250 251 250 247 250 249 255
258 253 251 248 250 247 244 245 253 256 255 256 257 258 258 258 259 257 255 255 256 257 256 252 249 248 246 245 246 246 246 247 245 244 246 245 246 248 251 245 245 256 244
254 254 252 251 253 250 249 247 242 238 247 248 250 252 255 256 256 254 252 254 256 257 257 257 254 252 250 248 247 248 249 247 248 248 244 245 246 248 248 248 257 255 247
260 257 257 256 255 255 252 253 251 248 240 243 246 248 250 251 250 249 247 250 254 255 257 258 257 254 253 251 251 252 250 251 249 250 251 250 250 251 252 252 254 254 258
266 262 259 255 252 252 253 254 255 255 252 247 243 245 247 248 249 247 246 247 250 251 253 256 259 258 255 253 253 252 255 255 255 253 251 251 251 251 255 255 256 256 257
260 259 255 250 250 251 250 252 256 258 258 256 253 249 247 247 246 247 247 245 245 248 249 251 254 257 257 255 254 254 256 258 259 258 253 250 252 248 249 251 254 253 249
259 254 252 249 246 242 245 249 251 254 259 259 259 256 250 249 247 244 243 243 242 243 246 250 254 256 256 256 256 254 255 257 258 260 261 255 254 252 248 247 251 249 254
265 265 260 256 251 248 247 247 253 257 261 262 261 261 255 247 245 243 239 237 236 240 243 246 251 255 257 256 256 256 256 258 260 261 263 262 260 257 253 253 251 247 245
Height
3158 3159 3159 3159 3160 3161 3163 3164 3165 3166 3167 3168 3169 3169 3170 3170 3170 3171 3170 3170 3170 3171 3171 3171 3171 3170 3170 3169 3168 3168 3168 3167 3168 3168 3169 3170 3172 3173 3173 3174 3175 3176 3176
3158 3159 3160 3161 3161 3163 3164 3165 3166 3167 3168 3168 3169 3169 3170 3170 3170 3171 3171 3171 3171 3171 3171 3171 3171 3169 3169 3168 3168 3168 3168 3169 3169 3169 3169 3171 3172 3174 3174 3175 3176 3177 3177
3158 3159 3161 3161 3162 3163 3164 3165 3166 3167 3168 3169 3169 3169 3170 3170 3171 3171 3171 3171 3171 3171 3171 3171 3170 3170 3169 3169 3169 3169 3169 3169 3170 3169 3170 3171 3173 3175 3176 3176 3177 3178 3179
3158 3160 3161 3161 3162 3163 3164 3165 3166 3167 3168 3169 3169 3170 3170 3171 3171 3171 3171 3171 3171 3171 3171 3170 3170 3170 3169 3169 3169 3169 3169 3169 3170 3170 3171 3172 3174 3175 3177 3179 3179 3178 3179
3160 3160 3161 3162 3163 3163 3164 3165 3166 3167 3167 3168 3169 3169 3169 3170 3171 3171 3171 3171 3171 3171 3171 3170 3170 3169 3169 3169 3169 3169 3169 3169 3170 3171 3172 3174 3175 3176 3178 3180 3179 3180 3181
3159 3160 3161 3162 3162 3163 3164 3165 3165 3166 3167 3167 3168 3168 3169 3169 3170 3170 3171 3170 3170 3170 3171 3171 3170 3170 3169 3169 3169 3169 3169 3170 3171 3172 3174 3175 3176 3177 3178 3180 3180 3181 3182
3158 3158 3159 3159 3160 3161 3162 3163 3163 3164 3165 3166 3167 3167 3168 3168 3168 3169 3170 3170 3170 3170 3170 3171 3171 3170 3169 3169 3169 3170 3171 3170 3171 3172 3174 3175 3177 3178 3180 3181 3181 3182 3182
3156 3156 3156 3157 3158 3158 3159 3160 3161 3162 3163 3164 3165 3165 3166 3167 3167 3168 3168 3168 3169 3169 3169 3170 3170 3170 3169 3168 3168 3170 3171 3171 3171 3172 3174 3176 3177 3179 3180 3182 3183 3184 3185
3154 3155 3155 3156 3156 3156 3156 3156 3157 3158 3159 3160 3161 3163 3163 3164 3165 3166 3166 3167 3167 3168 3168 3169 3169 3170 3170 3169 3168 3170 3170 3170 3171 3172 3174 3175 3178 3180 3182 3183 3184 3185 3185
3153 3153 3154 3154 3154 3154 3154 3154 3154 3155 3155 3156 3157 3159 3160 3161 3162 3163 3164 3165 3166 3166 3167 3167 3168 3168 3169 3170 3169 3169 3170 3170 3171 3172 3174 3176 3178 3180 3182 3183 3183 3184 3184
3152 3152 3151 3152 3152 3151 3151 3151 3151 3152 3152 3153 3153 3154 3156 3157 3158 3160 3161 3162 3164 3164 3165 3166 3167 3167 3168 3168 3169 3169 3169 3169 3170 3172 3173 3176 3177 3179 3179 3181 3181 3182 3181
3151 3151 3150 3150 3149 3149 3149 3149 3148 3149 3149 3150 3150 3151 3152 3153 3154 3156 3157 3159 3161 3161 3163 3164 3164 3165 3166 3167 3168 3168 3169 3169 3169 3170 3172 3174 3177 3177 3179 3180 3181 3180 3180
3149 3149 3149 3148 3148 3147 3147 3147 3146 3146 3146 3147 3147 3147 3148 3149 3151 3152 3154 3156 3157 3158 3160 3161 3162 3163 3164 3165 3166 3167 3168 3169 3169 3169 3170 3172 3175 3175 3177 3177 3177 3178 3178
3149 3148 3147 3146 3146 3145 3145 3144 3144 3143 3143 3143 3143 3144 3144 3145 3146 3147 3149 3151 3153 3154 3156 3157 3158 3160 3161 3162 3163 3164 3166 3167 3168 3169 3169 3170 3172 3173 3173 3173 3174 3174 3174
3146 3146 3146 3145 3144 3143 3143 3142 3141 3141 3141 3140 3140 3140 3141 3141 3142 3142 3144 3145 3147 3149 3152 3153 3154 3155 3157 3159 3160 3161 3162 3164 3165 3166 3167 3168 3169 3170 3171 3171 3171 3171 3172
3135 3141 3142 3142 3141 3140 3140 3139 3139 3138 3138 3138 3137 3137 3137 3137 3138 3138 3139 3140 3141 3143 3144 3147 3149 3150 3152 3153 3155 3156 3158 3159 3160 3162 3163 3165 3166 3167 3167 3168 3168 3169 3169
3132 3129 3132 3136 3136 3136 3136 3135 3135 3134 3134 3134 3134 3134 3134 3134 3133 3134 3135 3135 3136 3137 3139 3140 3142 3145 3146 3148 3150 3151 3153 3154 3156 3158 3159 3160 3161 3163 3164 3165 3166 3166 3166
3127 3128 3127 3125 3126 3129 3131 3130 3130 3130 3129 3129 3129 3129 3129 3130 3129 3129 3129 3130 3131 3132 3133 3135 3136 3138 3140 3142 3145 3146 3147 3148 3150 3152 3153 3155 3157 3158 3160 3161 3163 3163 3163
3122 3122 3121 3121 3121 3119 3118 3122 3123 3124 3124 3124 3124 3124 3124 3124 3124 3124 3124 3124 3124 3126 3127 3128 3129 3131 3133 3135 3138 3139 3141 3142 3143 3144 3146 3149 3151 3152 3154 3155 3157 3158 3158
3115 3115 3115 3115 3115 3114 3112 3110 3111 3114 3115 3116 3116 3117 3118 3119 3119 3119 3118 3118 3119 3120 3120 3122 3123 3124 3126 3128 3130 3131 3133 3135 3137 3138 3139 3141 3144 3146 3148 3150 3152 3152 3154
3107 3107 3107 3108 3107 3106 3106 3104 3102 3100 3104 3105 3106 3107 3109 3109 3111 3112 3112 3112 3112 3113 3114 3114 3116 3117 3119 3121 3121 3123 3126 3127 3128 3130 3132 3134 3136 3139 3140 3143 3146 3147 3149
3100 3100 3100 3100 3099 3097 3097 3096 3095 3095 3092 3093 3096 3098 3099 3100 3101 3102 3104 3105 3105 3106 3107 3108 3109 3110 3111 3113 3113 3115 3116 3119 3119 3123 3125 3126 3129 3132 3134 3136 3138 3141 3143
3092 3091 3091 3091 3091 3089 3087 3086 3086 3086 3086 3085 3084 3086 3088 3089 3091 3093 3095 3097 3097 3097 3099 3100 3101 3102 3104 3105 3105 3107 3107 3109 3113 3114 3117 3118 3120 3123 3126 3129 3131 3133 3136
3084 3083 3081 3080 3079 3078 3077 3076 3075 3075 3076 3076 3076 3076 3077 3078 3080 3083 3085 3087 3089 3090 3091 3092 3093 3095 3096 3097 3097 3098 3099 3101 3102 3105 3107 3109 3111 3114 3117 3120 3123 3126 3129
3075 3072 3071 3069 3068 3068 3066 3065 3064 3063 3063 3064 3065 3066 3067 3069 3070 3072 3074 3076 3079 3081 3082 3084 3085 3087 3087 3089 3090 3091 3091 3091 3093 3095 3097 3100 3102 3105 3108 3111 3113 3116 3119
3066 3063 3061 3061 3059 3058 3056 3055 3054 3052 3052 3052 3052 3053 3057 3057 3058 3061 3062 3065 3068 3070 3073 3075 3076 3078 3079 3080 3082 3083 3083 3083 3084 3086 3087 3090 3092 3095 3097 3100 3102 3107 3110